Location: ??????
(38.3184°N, 23.6932°E)
Time: 02:30:47
(UTC+00:00)

Cosmos 405 Rocket - Pass Details

Date: 16 October 2021
Orbit: 488 x 551 km, 81.3° (Epoch: 04 December)

Event Time Altitude Azimuth Distance (km) Brightness Sun altitude
Rises 16:58:20 0° 357° (N) 2,673 6.4 -15.0°
Reaches altitude 10° 17:00:33 10° 4° (N) 1,790 5.4 -15.4°
Maximum altitude 17:04:21 46° 79° (ENE) 731 3.0 -16.2°
Enters shadow 17:07:12 17° 147° (SSE) 1,431 4.6 -16.7°
